星链-4677 (STARLINK-4677 )

导读

STARLINK-4677是美国于2022年8月28日发射的星链卫星,隶属于SpaceX打造的星链卫星互联网星座项目。星链旨在为全球提供低延迟、高速率的宽带互联网服务,该卫星入轨后,进一步扩充了星链星座的在轨规模,助力覆盖范围与服务能力的提升,推动全球卫星互联网组网进程。

基本信息
目录编号:
53600
目录名称:
STARLINK-4677
国际标识:
2022-104N
轨道中心:
EARTH
卫星名称:
星链-4677
卫星全名:
星链-4677 (STARLINK-4677 )
卫星状态:
在轨 (已飞行1389 天)
发射日期:
2022-08-28 UTC
国别 :
美国 (US)
星等 :
--
轨道信息
数据来源 国际轨道数据 AOE轨道数据
星历时间 2026-06-17T00:24:09+0800
16小时前
查看轨道信息
2026-06-13T07:00:00+0800
4天前
查看轨道信息
半长轴 6917.94km 6917.9km
偏心率 0.0001283 0.0001651
轨道倾角 53.161° 53.158°
近地点辐角 88.258° 72.567°
升交点赤经 160.031° 176.776°
平近点角 271.856° 202.542°
近地点 538.915km 538.62km
远地点 540.691km 540.906km
周期 95.439分钟 95.438分钟
每日圈数 15.088207 15.088336
详细信息
固有亮度:
5
最大亮度:
2.5
卫星平台:
Starlink v1.5
覆盖范围:
全球
运营商:
太空探索技术公司
运营商所在国:
美国
制造商(研发单位):
太空探索技术公司
制造商所在国:
美国
使用方式:
暂无
卫星简介
星链(Starlink)计划是由太空探索技术公司(SpaceX)提出的一个巨型低轨卫星互联网星座项目,计划在2019年至2024年间在太空搭建由约1.2万颗卫星组成的“星链”网络,其中1584颗将部署在地球上空550千米处的近地轨道,并从2020年开始工作。该卫星仍在工作。
2D轨道图
3D轨道图
轨道高度分析图
轨道倾角分析图
轨道综合分析图
查看轨道综合分析图